Location: Dead Woman Crossing
(43.5369°N, 106.3228°W)
Time: 09:10:37
(UTC+00:00)

NANOSAT C BR1 - Pass Details

Date: 06 July 2022
Orbit: 584 x 599 km, 98.0° (Epoch: 09 August)

Event Time Altitude Azimuth Distance (km) Brightness Sun altitude
Rises 08:22:21 0° 26° (NNE) 2,852 ? -21.7°
Reaches altitude 10° 08:24:55 10° 42° (NE) 1,946 ? -21.6°
Maximum altitude 08:28:16 23° 94° (E) 1,303 ? -21.4°
Enters shadow 08:29:47 19° 124° (SE) 1,453 ? -21.3°
